ATLAS 5 CENTAUR DEB, 43973

Orbit data source: Space-Track

ATLAS 5 CENTAUR DEB, 43973 is space debris in HEO originally from a launch on Wed, 17 Sep 2014 UTC launched from the Air Force Eastern Test Range (AFETR). Debris objects in space refer to the collection of defunct objects orbiting the Earth. Examples of debris include non-operational satellites, rocket bodies, and fragments generated from explosions, collisions, or faulty payload assembly.

Loading next visibility...
ATLAS 5 CENTAUR DEB details
Identifier
43973, 2014-055AC
Orbit
HEO
Last TLE update6 days ago
Origin
Flag of USULA (US)
ManufacturerUnknown
MissionSpacecraft
Bus & MotorUnknown
MassUnknown
Launch date (UTC)
2014-09-17 (10 years ago)
Launch vehicleUnknown
Launch site
Air Force Eastern Test Range (AFETR)
Object type
Payload
Rocket body
Debris
Shape & HBRUnknown
Radar Cross SectionSmall (<0.1 m²)

Expand to show TLE details & history

TLE from 6 days ago
0 ATLAS 5 CENTAUR DEB
1 43973U 14055AC  24355.27893544 -.00000107  00000-0  00000-0 0  9991
2 43973  20.2743 166.7169 5120817 130.8651 286.4051  1.92519376 44388
Epoch: 2024-12-20T06:41Z
Definitive object data (Epoch: 2024-12-20T06:41:40.022Z)
Latitude-0.00001°
Longitude-23.03803°
Altitude23,869.338 km
Speed3.428 km/s
True Right ascension11h 06m 54s
True Declination0° 00' 00"
Sunlit
Object was in daylight at TLE epoch
Visualization TLE readout
Latitude-11.06401°
Longitude-55.68936°
Altitude33,585.481 km
Speed2.312 km/s
Apparent Right ascension08h 53m 36s
Apparent Declination-18° 51' 41"
Sunlit
Object is in daylight
Visualization observer readout
Local Sidereal Time09:15:09
Azimuth185.95° SSW
Elevation31.008°
Doppler factor1
Orbital elements
Apogee altitude34,897.548 km
Perigee altitude6,940.695 km
Semi-major axis27,297.258 km
Eccentricity0.5120817
Inclination20.2743°
RAAN166.7169°
Arg. of periapsis130.8651°
True anomaly229.19885°
Mean anomaly286.4051°
Eccentric anomaly257.73469°
Mean motion0.48124 °/min
BSTARUnknown
Orbital period748.06 mins
Loading maneuver chart data...

ATLAS 5 CENTAUR DEB Visibility forecast

Observer location: undefined°, undefined

Span
Click to sort rows by Start time (UTC) header in descending order
Start Az.
Max El. time (UTC)
Max El. Az.
Max El.
End time (UTC)
End Az.
276 mins2024-12-26 09:54:03.746Z185.948° SSW2024-12-26 13:36:03.746Z160.771° S37.534°2024-12-26 14:30:03.746Z94.623° ESE
327 mins2024-12-27 04:27:03.746Z216.967° SW2024-12-27 09:54:03.746Z198.734° SSW23.855°2024-12-27 09:54:03.746Z198.734° SSW
|